Time,TemperatureF,DewpointF,PressureIn,WindDirection,WindDirectionDegrees,WindSpeedMPH,WindSpeedGustMPH,Humidity,HourlyPrecipIn,Conditions,Clouds,dailyrainin,SoftwareType,DateUTC
2013-08-10 00:02:00,74.0,72.0,30.03,ESE,104,0.0,1.0,95,0.00,,,0.22,,2013-08-10 04:02:00,
2013-08-10 00:12:00,74.0,72.0,30.03,SSE,161,0.0,0.0,95,0.00,,,0.22,,2013-08-10 04:12:00,
2013-08-10 00:32:00,74.0,72.0,30.03,ESE,122,0.0,0.0,95,0.00,,,0.22,,2013-08-10 04:32:00,
2013-08-10 00:53:00,74.0,72.0,30.03,ESE,106,0.0,1.0,95,0.00,,,0.23,,2013-08-10 04:53:00,
2013-08-10 01:43:00,74.0,72.0,30.03,ESE,115,0.0,0.0,95,0.00,,,0.23,,2013-08-10 05:43:00,
2013-08-10 01:52:00,73.0,71.0,30.03,ESE,115,0.0,0.0,95,0.00,,,0.23,,2013-08-10 05:52:00,
2013-08-10 03:02:00,73.0,72.0,30.03,ENE,75,0.0,0.0,96,0.00,,,0.23,,2013-08-10 07:02:00,
2013-08-10 03:13:00,73.0,72.0,30.03,East,80,0.0,0.0,96,0.00,,,0.22,,2013-08-10 07:13:00,
2013-08-10 03:22:00,73.0,72.0,30.03,East,86,0.0,0.0,96,0.00,,,0.22,,2013-08-10 07:22:00,
2013-08-10 03:33:00,73.0,72.0,30.03,East,79,0.0,0.0,96,0.00,,,0.22,,2013-08-10 07:33:00,
2013-08-10 03:43:00,73.0,72.0,30.03,ENE,63,0.0,0.0,96,0.00,,,0.22,,2013-08-10 07:43:00,
2013-08-10 03:52:00,73.0,72.0,30.03,ENE,62,0.0,0.0,96,0.00,,,0.22,,2013-08-10 07:52:00,
2013-08-10 04:01:00,73.0,72.0,30.03,ENE,63,0.0,0.0,96,0.00,,,0.22,,2013-08-10 08:01:00,
2013-08-10 04:12:00,73.0,72.0,30.03,ENE,63,0.0,0.0,96,0.00,,,0.22,,2013-08-10 08:12:00,
2013-08-10 04:22:00,73.0,72.0,30.02,ENE,63,0.0,0.0,96,0.00,,,0.22,,2013-08-10 08:22:00,
2013-08-10 04:32:00,72.0,71.0,30.03,ENE,63,0.0,0.0,96,0.00,,,0.22,,2013-08-10 08:32:00,
2013-08-10 04:43:00,72.0,71.0,30.03,ENE,63,0.0,0.0,96,0.00,,,0.22,,2013-08-10 08:43:00,
2013-08-10 04:53:00,72.0,71.0,30.03,ENE,63,0.0,0.0,96,0.00,,,0.22,,2013-08-10 08:53:00,
2013-08-10 05:02:00,72.0,71.0,30.03,ENE,63,0.0,0.0,96,0.00,,,0.22,,2013-08-10 09:02:00,
2013-08-10 05:12:00,72.0,71.0,30.03,ENE,68,0.0,0.0,96,0.00,,,0.22,,2013-08-10 09:12:00,
2013-08-10 05:22:00,72.0,71.0,30.03,ENE,69,0.0,0.0,96,0.00,,,0.22,,2013-08-10 09:22:00,
2013-08-10 05:32:00,72.0,71.0,30.03,ENE,69,0.0,0.0,96,0.00,,,0.22,,2013-08-10 09:32:00,
2013-08-10 05:43:00,72.0,71.0,30.03,ENE,65,0.0,0.0,96,0.00,,,0.22,,2013-08-10 09:43:00,
2013-08-10 06:02:00,72.0,71.0,30.03,ENE,70,0.0,0.0,96,0.00,,,0.22,,2013-08-10 10:02:00,
2013-08-10 06:52:00,72.0,71.0,30.04,ENE,75,0.0,0.0,96,0.00,,,0.22,,2013-08-10 10:52:00,
2013-08-10 07:33:00,72.0,71.0,30.04,ENE,76,0.0,0.0,96,0.00,,,0.22,,2013-08-10 11:33:00,
2013-08-10 07:43:00,72.0,71.0,30.05,ENE,77,0.0,0.0,97,0.00,,,0.22,,2013-08-10 11:43:00,
2013-08-10 08:32:00,75.0,74.0,30.06,East,80,0.0,0.0,97,0.00,,,0.22,,2013-08-10 12:32:00,
2013-08-10 08:42:00,76.0,75.0,30.07,East,94,0.0,2.0,97,0.00,,,0.22,,2013-08-10 12:42:00,
2013-08-10 08:52:00,76.0,75.0,30.07,East,91,1.0,2.0,97,0.00,,,0.22,,2013-08-10 12:52:00,
2013-08-10 09:01:00,77.0,76.0,30.07,ESE,102,2.0,3.0,97,0.00,,,0.22,,2013-08-10 13:01:00,
2013-08-10 09:43:00,80.0,77.0,30.07,East,93,3.0,6.0,92,0.00,,,0.22,,2013-08-10 13:43:00,
2013-08-10 09:52:00,80.0,77.0,30.07,ENE,71,7.0,9.0,91,0.00,,,0.22,,2013-08-10 13:52:00,
2013-08-10 10:02:00,81.0,77.0,30.07,ESE,115,6.0,9.0,88,0.00,,,0.22,,2013-08-10 14:02:00,
2013-08-10 10:12:00,83.0,77.0,30.07,ESE,112,4.0,7.0,82,0.00,,,0.22,,2013-08-10 14:12:00,
2013-08-10 10:33:00,84.0,76.0,30.07,East,85,3.0,6.0,77,0.00,,,0.22,,2013-08-10 14:33:00,
2013-08-10 10:53:00,86.0,76.0,30.09,East,80,5.0,9.0,72,0.00,,,0.22,,2013-08-10 14:53:00,
2013-08-10 11:02:00,86.0,75.0,30.09,ESE,119,2.0,3.0,71,0.00,,,0.22,,2013-08-10 15:02:00,
2013-08-10 11:43:00,87.0,75.0,30.09,SSE,160,4.0,5.0,67,0.00,,,0.22,,2013-08-10 15:43:00,
2013-08-10 11:52:00,87.0,73.0,30.09,East,96,4.0,5.0,64,0.00,,,0.22,,2013-08-10 15:52:00,
2013-08-10 12:01:00,87.0,74.0,30.09,ESE,123,3.0,8.0,65,0.00,,,0.22,,2013-08-10 16:01:00,
2013-08-10 12:11:00,89.0,74.0,30.09,East,91,8.0,10.0,62,0.00,,,0.22,,2013-08-10 16:11:00,
2013-08-10 12:22:00,88.0,73.0,30.09,SSE,152,2.0,3.0,61,0.00,,,0.22,,2013-08-10 16:22:00,
2013-08-10 12:32:00,89.0,75.0,30.09,ENE,74,4.0,7.0,63,0.00,,,0.22,,2013-08-10 16:32:00,
2013-08-10 12:43:00,89.0,74.0,30.09,South,184,3.0,7.0,62,0.00,,,0.22,,2013-08-10 16:43:00,
2013-08-10 12:53:00,89.0,73.0,30.09,SE,128,2.0,3.0,59,0.00,,,0.22,,2013-08-10 16:53:00,
2013-08-10 13:02:00,90.0,76.0,30.08,ESE,108,1.0,5.0,63,0.00,,,0.22,,2013-08-10 17:02:00,
2013-08-10 13:12:00,91.0,75.0,30.08,SSE,165,5.0,9.0,59,0.00,,,0.22,,2013-08-10 17:12:00,
2013-08-10 13:22:00,91.0,74.0,30.08,ESE,121,5.0,8.0,57,0.00,,,0.22,,2013-08-10 17:22:00,
2013-08-10 13:33:00,91.0,73.0,30.08,East,96,3.0,7.0,56,0.00,,,0.22,,2013-08-10 17:33:00,
2013-08-10 13:43:00,90.0,73.0,30.08,ESE,109,3.0,4.0,57,0.00,,,0.22,,2013-08-10 17:43:00,
2013-08-10 13:52:00,91.0,73.0,30.08,ESE,115,4.0,6.0,56,0.00,,,0.22,,2013-08-10 17:52:00,
2013-08-10 14:01:00,92.0,73.0,30.08,SE,142,3.0,7.0,54,0.00,,,0.22,,2013-08-10 18:01:00,
2013-08-10 14:11:00,92.0,72.0,30.07,East,89,3.0,7.0,53,0.00,,,0.22,,2013-08-10 18:11:00,
2013-08-10 14:23:00,92.0,73.0,30.07,East,96,4.0,7.0,54,0.00,,,0.22,,2013-08-10 18:23:00,
2013-08-10 14:32:00,93.0,73.0,30.06,SSW,200,0.0,2.0,53,0.00,,,0.22,,2013-08-10 18:32:00,
2013-08-10 14:44:00,92.0,72.0,30.05,ESE,112,2.0,4.0,52,0.00,,,0.22,,2013-08-10 18:44:00,
2013-08-10 14:52:00,92.0,74.0,30.05,South,188,4.0,7.0,56,0.00,,,0.22,,2013-08-10 18:52:00,
2013-08-10 15:02:00,92.0,73.0,30.04,East,92,1.0,3.0,54,0.00,,,0.22,,2013-08-10 19:02:00,
2013-08-10 15:11:00,92.0,72.0,30.03,East,95,4.0,5.0,53,0.00,,,0.22,,2013-08-10 19:11:00,
2013-08-10 15:22:00,92.0,73.0,30.03,East,96,6.0,8.0,54,0.00,,,0.22,,2013-08-10 19:22:00,
2013-08-10 15:33:00,92.0,73.0,30.02,South,177,4.0,9.0,55,0.00,,,0.22,,2013-08-10 19:33:00,
2013-08-10 15:44:00,93.0,73.0,30.02,ESE,106,5.0,8.0,52,0.00,,,0.22,,2013-08-10 19:44:00,
2013-08-10 15:53:00,93.0,73.0,30.02,ESE,106,0.0,0.0,52,0.00,,,0.22,,2013-08-10 19:53:00,
2013-08-10 16:02:00,93.0,72.0,30.02,East,81,0.0,1.0,50,0.00,,,0.22,,2013-08-10 20:02:00,
2013-08-10 16:12:00,92.0,72.0,30.02,ENE,78,1.0,5.0,53,0.00,,,0.22,,2013-08-10 20:12:00,
2013-08-10 16:22:00,91.0,72.0,30.02,SE,126,0.0,1.0,54,0.00,,,0.22,,2013-08-10 20:22:00,
2013-08-10 16:33:00,90.0,72.0,30.01,SE,127,0.0,0.0,56,0.00,,,0.22,,2013-08-10 20:33:00,
2013-08-10 16:43:00,90.0,73.0,30.01,East,85,0.0,0.0,57,0.00,,,0.22,,2013-08-10 20:43:00,
2013-08-10 16:53:00,90.0,74.0,30.01,East,85,0.0,0.0,60,0.00,,,0.22,,2013-08-10 20:53:00,
2013-08-10 17:02:00,90.0,74.0,30.01,ENE,63,0.0,0.0,60,0.00,,,0.22,,2013-08-10 21:02:00,
2013-08-10 17:12:00,91.0,73.0,30.01,East,101,1.0,5.0,56,0.00,,,0.22,,2013-08-10 21:12:00,
2013-08-10 17:22:00,90.0,71.0,30.01,SE,145,0.0,0.0,53,0.00,,,0.22,,2013-08-10 21:22:00,
2013-08-10 17:32:00,90.0,71.0,30.01,ESE,105,1.0,5.0,53,0.00,,,0.22,,2013-08-10 21:32:00,
2013-08-10 17:42:00,90.0,70.0,30.01,SSE,155,0.0,0.0,52,0.00,,,0.22,,2013-08-10 21:42:00,
2013-08-10 17:52:00,92.0,71.0,30.01,NNW,343,0.0,0.0,50,0.00,,,0.12,,2013-08-10 21:52:00,
2013-08-10 18:01:00,91.0,77.0,30.01,WNW,283,0.0,1.0,63,0.00,,,0.07,,2013-08-10 22:01:00,
2013-08-10 18:11:00,90.0,75.0,30.01,WNW,294,0.0,0.0,62,0.00,,,0.05,,2013-08-10 22:11:00,
2013-08-10 18:21:00,90.0,76.0,30.01,NE,53,0.0,0.0,63,0.00,,,0.02,,2013-08-10 22:21:00,
2013-08-10 18:32:00,89.0,75.0,30.01,ESE,113,0.0,0.0,63,0.00,,,0.01,,2013-08-10 22:32:00,
2013-08-10 18:52:00,89.0,73.0,30.00,East,89,0.0,0.0,59,0.00,,,0.01,,2013-08-10 22:52:00,
2013-08-10 19:01:00,89.0,73.0,30.01,SE,136,1.0,3.0,59,0.00,,,0.01,,2013-08-10 23:01:00,
2013-08-10 19:12:00,89.0,72.0,30.00,ENE,72,0.0,1.0,58,0.00,,,0.01,,2013-08-10 23:12:00,
2013-08-10 19:22:00,89.0,72.0,30.01,East,95,5.0,9.0,58,0.00,,,0.01,,2013-08-10 23:22:00,
2013-08-10 19:32:00,89.0,72.0,30.01,SE,124,0.0,0.0,58,0.00,,,0.01,,2013-08-10 23:32:00,
2013-08-10 19:43:00,88.0,70.0,30.01,SE,144,0.0,0.0,56,0.00,,,0.01,,2013-08-10 23:43:00,
2013-08-10 19:53:00,88.0,71.0,30.01,ESE,103,0.0,0.0,58,0.00,,,0.01,,2013-08-10 23:53:00,
2013-08-10 20:02:00,87.0,71.0,30.01,ESE,107,0.0,0.0,60,0.00,,,0.01,,2013-08-11 00:02:00,
2013-08-10 20:11:00,87.0,72.0,30.02,ESE,118,0.0,0.0,61,0.00,,,0.01,,2013-08-11 00:11:00,
2013-08-10 20:22:00,86.0,72.0,30.02,ESE,118,0.0,0.0,63,0.00,,,0.01,,2013-08-11 00:22:00,
2013-08-10 20:32:00,86.0,73.0,30.02,ESE,118,0.0,0.0,65,0.00,,,0.01,,2013-08-11 00:32:00,
2013-08-10 20:42:00,85.0,72.0,30.02,ESE,118,0.0,0.0,66,0.00,,,0.01,,2013-08-11 00:42:00,
2013-08-10 20:52:00,85.0,73.0,30.03,ESE,118,0.0,0.0,68,0.00,,,0.01,,2013-08-11 00:52:00,
2013-08-10 21:01:00,84.0,73.0,30.03,ESE,118,0.0,0.0,69,0.00,,,0.01,,2013-08-11 01:01:00,
2013-08-10 21:11:00,83.0,73.0,30.03,ESE,118,0.0,0.0,71,0.00,,,0.01,,2013-08-11 01:11:00,
2013-08-10 21:22:00,83.0,73.0,30.03,ESE,118,0.0,0.0,72,0.00,,,0.01,,2013-08-11 01:22:00,
2013-08-10 21:32:00,82.0,72.0,30.03,ESE,118,0.0,0.0,73,0.00,,,0.01,,2013-08-11 01:32:00,
2013-08-10 21:43:00,82.0,73.0,30.04,ESE,118,0.0,0.0,74,0.00,,,0.01,,2013-08-11 01:43:00,
2013-08-10 21:53:00,82.0,73.0,30.04,ESE,118,0.0,0.0,75,0.00,,,0.01,,2013-08-11 01:53:00,
2013-08-10 22:02:00,81.0,72.0,30.05,ESE,118,0.0,0.0,75,0.00,,,0.01,,2013-08-11 02:02:00,
2013-08-10 22:11:00,81.0,73.0,30.05,ESE,118,0.0,0.0,76,0.00,,,0.01,,2013-08-11 02:11:00,
2013-08-10 22:22:00,81.0,73.0,30.05,ESE,118,0.0,0.0,77,0.00,,,0.01,,2013-08-11 02:22:00,
2013-08-10 22:32:00,80.0,72.0,30.06,ESE,118,0.0,0.0,78,0.00,,,0.01,,2013-08-11 02:32:00,
2013-08-10 22:43:00,80.0,73.0,30.06,ESE,118,0.0,0.0,79,0.00,,,0.01,,2013-08-11 02:43:00,
2013-08-10 22:56:00,80.0,73.0,30.06,ESE,118,0.0,0.0,79,0.00,,,0.01,,2013-08-11 02:56:00,
2013-08-10 23:06:00,79.0,72.0,30.07,SE,126,0.0,0.0,80,0.00,,,0.01,,2013-08-11 03:06:00,
2013-08-10 23:27:00,79.0,72.0,30.08,SE,132,0.0,0.0,80,0.00,,,0.01,,2013-08-11 03:27:00,
2013-08-10 23:35:00,79.0,72.0,30.08,SE,131,0.0,0.0,80,0.00,,,0.01,,2013-08-11 03:35:00,
2013-08-10 23:44:00,79.0,72.0,30.08,ESE,118,0.0,0.0,80,0.00,,,0.01,,2013-08-11 03:44:00,
2013-08-10 23:54:00,79.0,72.0,30.09,SE,140,0.0,0.0,80,0.00,,,0.01,,2013-08-11 03:54:00,